GFSNGP_con_mlcape_159.txt.gz
CAPE
0 0 0 0 0 0 0 0 0 0 0 0 0 0 0 0 0 0 6 46 73 122 413 566 721 828 951 1130 1441 1835 2007 2148 2392 2183 1901 1714 1042 514 369 122 18 0 0 67
0 0 0 0 0 0 0 0 0 0 0 0 0 0 0 0 0 0 0 14 23 75 227 365 671 872 1089 1431 1786 2132 2144 2123 2260 2197 1689 1433 914 537 474 280 4 0 3 14
0 0 0 0 0 0 0 0 0 0 0 0 0 0 0 0 0 0 0 0 0 0 56 315 662 1022 1288 1655 1937 1976 2142 2162 2061 1615 1353 1136 833 403 196 0 0 0 2 33
0 0 0 0 0 0 0 0 0 0 0 0 0 0 0 0 0 0 0 18 8 103 298 558 902 1260 1656 1726 1703 1931 1961 1802 1612 1400 1224 798 320 69 0 0 0 0 27 117
0 0 0 0 0 0 0 0 0 0 0 0 0 0 0 0 0 0 120 392 381 482 600 655 756 1231 1411 1439 1633 1666 1622 1640 1539 1362 1120 569 238 30 0 0 0 0 210 135
0 0 0 0 0 0 0 0 0 0 0 0 0 0 0 0 0 15 313 521 655 692 683 739 858 1132 1041 1025 1124 1109 1161 1278 1181 1095 926 685 345 118 0 0 0 101 75 6
0 0 0 0 0 0 0 0 0 0 0 0 0 0 0 0 9 275 554 743 876 919 946 864 801 621 354 446 570 829 863 894 904 960 998 680 343 56 0 0 22 120 11 28
0 0 0 0 0 0 0 0 0 0 0 0 0 0 2 67 284 560 572 654 602 314 175 175 159 71 7 32 480 719 786 815 979 991 738 498 235 8 0 0 35 105 136 19
0 0 0 0 0 0 0 14 30 3 5 37 39 57 126 214 262 314 377 423 583 518 624 837 1002 1107 754 543 539 479 466 740 830 917 648 341 142 5 0 1 55 194 161 144
0 0 0 0 0 16 42 84 98 120 106 112 66 58 34 0 0 0 0 0 0 0 0 0 0 4 386 565 554 676 835 681 655 693 379 67 4 11 16 41 122 171 64 34
0 0 0 0 23 51 123 70 61 75 50 11 12 0 0 0 0 0 0 0 0 0 0 0 0 0 0 123 460 796 783 585 416 93 22 2 0 0 33 46 47 35 2 27
0 0 30 21 18 20 19 27 24 19 2 0 0 0 0 0 0 0 0 0 0 0 0 0 0 0 0 0 8 365 648 339 55 1 0 0 0 0 0 0 0 0 0 2
0 0 3 0 3 2 0 0 0 0 0 0 0 0 0 0 0 0 0 0 0 0 0 0 0 0 0 0 15 4 171 141 2 0 0 0 0 0 0 0 0 0 0 0
0 0 0 0 0 0 0 0 0 0 0 0 0 0 0 0 0 0 0 0 0 0 0 0 0 0 0 0 0 0 13 0 1 2 1 0 1 0 0 2 0 0 0 0
0 0 0 0 0 0 0 0 0 0 0 0 0 0 0 0 0 0 0 0 0 0 0 0 0 0 0 0 1 5 32 10 3 1 0 0 0 1 1 0 0 0 0 0
0 0 0 0 0 0 0 0 0 0 0 0 0 0 0 0 0 0 0 0 0 0 0 0 0 0 0 0 0 0 0 0 15 28 0 0 15 5 2 3 1 0 0 0
0 0 0 0 0 0 0 0 0 0 0 0 0 0 0 0 0 0 0 0 0 0 0 0 0 0 0 0 20 0 21 15 0 19 75 47 48 8 3 12 1 0 0 0
0 0 0 0 0 0 0 0 0 0 0 0 0 0 0 0 0 0 0 0 0 0 4 9 5 0 0 0 0 0 0 0 0 53 0 1 21 15 3 7 1 0 0 0
0 0 0 0 0 0 0 0 0 0 0 0 0 0 0 0 0 0 0 0 1 7 28 17 0 0 0 0 0 0 0 0 0 0 0 0 11 10 4 0 0 0 0 0
0 0 0 0 0 0 0 0 0 0 0 0 0 0 0 0 0 0 4 26 38 38 32 5 2 0 0 0 0 0 0 0 0 0 0 3 13 21 13 1 0 0 0 0
0 0 0 0 0 0 0 0 0 0 0 0 0 0 0 0 0 3 6 19 17 23 32 0 0 0 0 0 0 0 0 0 3 25 20 18 13 80 19 0 0 0 0 0
0 0 0 0 0 0 0 0 0 0 0 0 0 0 0 0 0 0 3 32 17 7 13 0 0 0 0 0 0 0 0 0 0 0 4 21 36 28 0 0 0 0 0 0
0 0 0 0 0 0 0 0 0 0 0 0 1 3 3 2 3 7 0 0 8 0 0 0 0 0 0 0 0 0 5 7 7 19 15 1 2 0 0 0 0 0 0 0
0 0 0 0 0 0 0 0 0 0 0 0 0 0 5 5 0 0 0 0 0 0 0 0 0 0 0 0 0 0 0 0 9 13 0 0 0 0 0 0 0 0 0 0
0 0 0 0 0 0 0 0 0 0 0 0 0 0 0 0 0 0 0 0 0 0 0 0 0 0 0 0 0 0 0 0 0 0 0 0 0 0 0 0 0 0 0 0
0 0 0 0 0 0 0 0 0 0 0 0 0 0 0 0 0 0 0 0 0 0 0 0 0 0 0 0 0 0 0 0 0 0 0 0 0 0 0 0 0 0 0 0
0 0 25 25 14 12 6 0 0 0 0 0 0 0 0 0 0 0 0 0 0 0 0 0 0 0 0 0 0 0 0 0 0 0 0 0 0 0 0 0 0 0 0 0

GFSNGP_con_mlcape_162.txt.gz
CAPE
0 0 0 0 0 0 0 0 0 0 0 0 0 0 0 0 0 49 251 752 831 1085 1232 1288 1371 1470 1533 1673 1745 1926 2282 2499 2715 2882 3070 2990 2933 2698 2310 1989 983 680 589 326
0 0 0 0 0 0 0 0 0 0 0 0 0 0 0 0 0 0 85 724 1019 1347 1692 1668 1668 1643 1756 1951 2086 2258 2593 2846 3004 3220 2943 2710 2442 2341 1906 1163 890 764 478 143
0 0 0 0 0 0 0 0 0 0 0 0 0 0 0 0 0 0 0 387 1049 1315 1581 1858 2070 2093 2003 2255 2633 2933 3139 3303 3339 2863 2398 2049 1899 1723 1389 1217 1199 794 176 148
0 0 0 0 0 0 0 0 0 0 0 0 0 0 0 0 0 0 5 138 969 1393 1591 1859 2003 2109 2356 2757 3186 3295 3419 3220 2554 2211 1943 1752 1514 1561 1689 1430 760 236 162 128
0 0 0 0 0 0 0 0 0 0 0 0 0 0 0 0 0 0 46 291 1124 1353 1563 1883 2252 2651 2935 2884 2891 3055 2950 2518 2180 2016 1838 1511 1456 1446 1009 531 313 151 93 170
0 0 0 0 0 0 0 0 0 0 0 0 0 0 0 0 15 212 310 1116 1490 1464 1893 2206 2753 2702 2598 2767 2695 2593 2602 2488 2035 2093 1844 1608 1534 982 659 467 254 70 149 266
0 0 0 0 0 0 0 0 0 0 0 0 0 0 106 239 296 774 1280 1469 1572 1679 1983 2358 2415 2424 2265 2005 1508 1390 1462 1602 1834 2020 1938 1758 1076 745 457 335 203 170 222 112
0 0 0 0 0 0 0 0 105 36 24 0 7 341 305 590 975 1301 1604 1780 1918 1910 1906 1896 1735 1223 1105 1095 1544 1747 1953 2015 2100 2204 1944 1477 1046 749 587 418 388 291 251 179
0 0 0 0 0 0 275 372 515 105 219 54 415 476 676 996 1284 1509 1445 1241 1173 1246 1427 1646 1618 1427 724 997 1413 1428 1707 1895 1562 1562 1425 1329 1092 662 557 472 178 216 249 135
0 0 0 0 3 203 330 465 655 458 474 466 629 794 1066 1156 1024 827 703 507 311 227 224 302 703 1237 1515 1435 1239 1194 1079 1366 1404 1599 1262 1138 991 798 571 388 142 210 108 157
0 0 0 8 55 297 628 688 534 503 461 426 439 250 41 0 0 0 0 0 0 0 0 0 0 7 365 982 1442 1423 1418 1344 1510 1299 1416 981 493 328 328 151 176 242 104 118
0 0 0 0 45 702 629 424 413 279 204 88 25 1 0 0 0 0 0 0 0 0 0 0 2 31 117 284 647 1081 1092 694 511 521 528 341 4 0 0 0 0 0 0 1
100 95 79 603 452 590 498 330 233 134 2 0 0 0 0 0 0 0 0 0 0 0 0 0 0 0 110 260 203 387 392 319 127 307 191 68 0 1 0 0 0 0 0 0
64 71 106 292 440 416 316 132 0 0 0 0 0 0 0 0 0 0 0 0 0 0 0 0 0 0 0 0 1 1 0 39 188 190 158 157 114 60 3 1 2 0 0 0
108 66 146 179 123 92 13 0 0 0 0 0 0 0 0 0 0 0 0 0 0 0 0 0 0 0 1 11 39 18 8 13 32 33 39 24 23 29 54 37 0 0 0 0
72 41 42 10 0 0 0 0 0 0 0 0 0 0 0 0 0 0 0 0 0 0 0 1 2 12 27 57 67 6 18 9 35 37 3 37 42 57 83 26 2 0 0 0
4 19 0 0 0 0 0 0 0 0 0 0 0 0 0 0 0 0 0 0 0 0 0 7 21 11 0 1 2 8 5 1 0 20 46 39 27 61 109 82 18 0 0 0
0 0 0 0 0 0 0 0 0 0 0 0 0 0 0 0 0 0 0 0 0 0 9 38 5 0 0 0 0 0 0 1 0 9 33 42 79 88 89 88 65 6 0 0
23 6 6 3 0 0 0 0 0 0 0 0 0 0 0 0 0 0 0 0 0 4 49 0 0 0 0 0 0 0 0 0 0 1 10 1 41 99 114 98 22 3 1 0
0 0 0 0 0 0 0 0 0 0 0 0 0 0 0 0 0 0 1 4 29 48 50 0 28 22 6 0 0 0 0 3 9 16 18 12 58 59 76 52 45 24 0 0
0 0 0 0 0 0 0 0 0 0 0 0 0 0 2 0 2 12 16 14 79 54 64 21 51 20 12 0 0 11 8 18 31 55 45 60 76 75 53 20 8 1 0 0
0 0 0 0 0 0 0 0 0 0 0 0 0 1 0 1 1 30 71 54 62 15 56 72 32 1 1 0 44 8 7 10 9 20 31 57 86 136 25 3 2 0 0 0
0 0 0 0 0 0 0 0 0 0 4 7 8 13 6 8 13 15 29 38 55 17 73 27 0 0 0 0 20 11 7 7 9 20 29 39 44 1 3 18 1 0 0 0
0 0 1 5 9 9 8 8 4 2 1 2 5 25 35 31 6 7 12 0 2 2 21 0 0 0 0 2 0 1 15 25 30 32 0 2 4 0 0 0 0 0 0 0
2 0 0 0 0 0 0 0 5 9 5 4 9 3 0 0 29 16 22 4 0 0 0 0 0 0 0 7 1 0 1 14 9 0 0 0 0 0 6 1 0 0 0 0
0 0 0 0 0 0 0 0 0 0 6 0 0 0 0 0 1 43 34 19 1 0 6 0 0 0 2 3 0 0 1 0 0 0 0 0 0 0 0 0 0 0 0 0
0 0 4 1 0 0 0 0 0 0 0 0 0 0 0 0 0 0 0 0 0 0 1 0 0 0 0 0 0 0 0 0 0 0 0 0 0 0 0 0 0 0 0 0

GFSNGP_con_mlcape_165.txt.gz
CAPE
0 0 0 0 0 0 0 0 0 0 0 0 0 0 0 0 0 0 0 72 632 892 839 1204 1530 1591 1748 1743 1940 2303 2758 3048 3345 3477 3488 3570 3600 3405 3516 3081 2854 2456 1522 1442
0 0 0 0 0 0 0 0 0 0 0 0 0 0 0 0 0 0 0 0 320 1226 1332 1484 1715 1964 1924 2025 2324 2474 2827 3024 3249 3439 3507 3442 3499 3337 3452 2780 2228 1938 1598 1450
0 0 0 0 0 0 0 0 0 0 0 0 0 0 0 0 0 0 0 0 83 1094 1826 2121 2052 2231 2146 2366 2553 2858 3046 3159 3384 3663 3916 3665 3426 3174 2743 2324 1820 1628 1559 1372
0 0 0 0 0 0 0 0 0 0 0 0 0 0 0 0 0 0 0 0 2 805 1931 2514 2491 2516 2518 2619 2899 3050 3353 3583 4059 4058 3412 3131 2974 2511 2109 1852 1707 1326 1348 852
0 0 0 0 0 0 0 0 0 0 0 0 0 0 0 0 0 0 0 5 154 457 2072 2485 2632 2799 2806 3032 3356 3616 3739 3895 3236 3052 2695 2429 2269 2287 2083 1705 1676 1313 964 700
0 0 0 0 0 0 0 0 0 0 0 0 0 0 0 0 0 0 0 145 533 1297 2076 2519 2674 2890 3416 3700 3667 3692 3459 2980 2620 2506 2472 2293 2342 2452 2111 1681 1013 812 447 442
0 0 0 0 0 0 0 0 0 0 0 0 0 0 0 240 653 911 1101 1441 1744 1721 2038 2583 3141 3502 3524 3410 3335 3083 2970 2830 2856 2863 2635 2449 2405 2165 1315 1009 797 472 402 426
0 0 0 0 0 0 0 0 0 0 2 0 0 0 563 1263 1538 1554 1777 1908 1998 2231 3028 3347 3256 3218 2978 2775 2380 2265 2436 2628 2707 2700 2507 2378 1768 1377 1147 920 837 537 464 247
0 0 0 0 0 0 0 592 401 783 509 185 26 827 1089 1412 1570 1851 2022 2317 2650 2810 2872 2715 2268 2242 2226 2262 2285 2336 2612 2698 2707 2257 2044 1767 1403 1325 1119 968 822 562 431 253
0 0 0 0 0 0 20 760 583 620 616 272 297 995 1304 1590 1779 1894 1991 2021 2043 2043 1971 2162 1920 1961 2147 2114 2250 2031 2001 2081 2346 2185 1945 1833 1574 1325 1100 895 704 375 221 341
1 0 0 0 0 0 0 284 741 742 674 677 967 1423 1698 1853 1817 1702 1503 1218 830 580 599 779 1070 1388 1780 2093 2137 2137 2095 1983 2091 1646 1712 1197 215 210 605 8 70 276 367 356
22 12 1 0 0 0 0 317 782 646 808 1013 1345 1448 861 424 115 6 0 4 21 32 39 57 83 254 594 938 1242 1321 1324 1523 1789 1756 1287 866 124 0 0 0 0 0 0 6
75 144 148 151 103 0 12 657 856 838 904 735 407 69 8 0 0 0 0 0 18 14 31 53 93 130 158 257 411 498 387 856 735 715 813 576 436 74 2 0 0 0 0 0
0 7 99 205 227 618 663 807 666 647 312 59 21 4 0 0 1 5 5 5 7 5 7 13 26 54 89 175 306 391 266 51 43 578 356 303 156 46 0 0 1 0 0 0
0 26 68 149 344 705 782 513 155 52 34 30 5 0 0 0 0 0 0 0 0 0 0 0 6 15 54 116 47 73 45 19 53 7 38 165 211 167 122 84 8 0 0 0
28 63 176 166 621 653 295 41 52 26 5 0 0 0 0 0 0 0 0 0 0 0 0 0 0 0 0 1 1 0 5 1 0 6 9 15 27 35 78 80 0 0 0 0
0 97 313 325 635 570 91 59 0 0 0 11 0 0 0 0 0 0 0 0 0 0 0 0 0 0 0 4 1 13 9 0 0 16 27 65 32 49 122 112 0 0 0 0
0 11 322 308 204 93 24 0 0 0 0 0 0 0 0 0 0 0 0 0 0 0 2 4 0 0 0 0 0 1 2 36 1 11 53 26 49 107 122 142 32 2 0 0
22 50 199 170 77 13 3 9 13 8 6 1 0 0 0 0 0 0 0 0 0 7 42 1 0 0 0 0 0 2 8 13 35 14 53 43 58 80 128 213 87 12 0 0
123 114 129 79 85 68 64 47 43 31 14 3 0 0 0 0 0 0 0 0 9 19 5 0 6 14 0 0 0 9 25 27 32 36 43 45 74 95 127 130 48 1 0 0
0 2 6 9 11 10 6 0 0 0 0 1 12 12 24 8 0 1 2 22 201 24 28 3 28 36 27 0 0 3 27 31 41 39 25 36 95 158 128 83 16 4 0 0
0 0 0 1 1 0 0 0 0 0 0 0 0 0 5 16 15 14 54 88 94 3 4 32 20 2 7 0 13 14 7 0 4 5 19 27 193 240 100 55 21 0 0 0
43 16 0 1 0 2 1 1 2 4 6 15 18 19 6 7 5 11 30 112 47 10 56 13 0 0 0 0 15 6 6 4 1 7 22 47 204 199 44 18 9 13 0 0
81 86 71 28 6 8 3 3 1 7 14 11 7 9 19 17 18 12 12 0 1 0 2 0 0 0 0 9 23 31 12 23 12 5 7 15 37 29 59 35 18 12 0 0
1 0 0 0 0 9 9 4 7 12 17 19 13 8 5 11 18 40 29 28 0 7 0 0 0 0 0 8 9 25 30 12 21 11 26 31 14 5 0 0 0 0 0 0
19 15 5 5 1 0 0 1 14 16 16 11 8 9 18 12 28 42 39 5 6 3 0 0 0 0 17 10 7 6 7 0 0 4 6 0 6 13 9 7 6 4 3 4
18 7 8 13 2 0 0 0 0 2 27 20 6 0 1 22 3 20 1 44 37 36 0 0 0 0 14 6 3 9 9 0 0 0 0 4 1 3 12 16 2 0 0 0

GFSNGP_con_mlcape_168.txt.gz
CAPE
0 0 0 0 0 0 0 0 0 0 0 0 0 10 3 5 0 0 0 0 113 575 965 1433 1495 1397 1489 1367 1296 1738 2368 3255 3808 4036 4419 4498 4445 4431 4503 4123 3950 3216 2517 2026
0 0 0 0 0 0 0 0 0 0 0 0 0 0 2 39 3 0 0 0 0 515 1137 1403 2140 2089 2053 2344 2240 2233 2642 3321 3891 4131 4139 4208 4154 4174 3935 3942 3619 2955 2103 1810
0 0 0 0 0 0 0 0 0 0 0 0 0 0 7 6 16 7 0 0 0 133 981 1641 1974 2278 2203 2486 3025 2965 3236 3560 3829 4065 4137 4040 3832 3591 3537 3461 3269 2915 2337 2014
0 0 0 0 0 0 0 0 0 0 0 0 0 0 0 0 0 0 0 0 0 170 1402 2114 2258 2474 2514 2655 2983 3304 3542 3665 3873 4063 3961 4160 3935 3925 3801 3351 2768 2467 2154 1820
0 0 0 0 0 0 0 0 0 0 0 0 0 0 0 0 0 0 0 0 143 169 2181 2597 2735 2843 2744 2932 3235 3482 3680 3753 4047 4300 4305 4036 3789 3504 3134 2657 2365 2096 1696 1486
0 0 0 0 0 0 0 0 0 0 0 0 0 0 0 0 0 0 0 0 25 82 1352 3080 3224 3316 3214 3401 3591 3699 3907 4405 4256 3930 3479 2887 2749 2866 2684 2411 2035 1804 1395 1070
0 0 0 0 0 0 0 0 0 0 0 0 0 0 0 0 51 487 801 465 554 1285 2861 3315 3560 3434 3650 3891 4010 4234 4096 3579 3086 2960 2558 2386 2370 2781 2328 1772 1413 1236 934 712
0 0 0 0 0 0 14 5 0 0 0 159 5 23 0 213 928 1268 1607 1890 1895 2511 3035 3522 3533 3941 3969 3769 3928 3548 3247 2909 2716 2616 2352 2571 2317 1870 1600 1391 1088 886 749 662
0 0 0 0 0 0 0 0 408 802 615 353 216 677 980 1443 1715 1944 2085 2056 2935 3800 3934 4018 4061 4050 3838 3468 3162 3001 2652 2933 3005 2830 2772 2199 1849 1610 1485 1504 1147 884 701 493
0 0 0 0 0 0 0 0 444 600 654 559 263 625 1707 1913 2056 2338 2888 3169 3411 3534 3350 3029 2938 2819 2730 2821 2970 3031 3187 2883 2454 2410 2221 2131 1899 1616 1563 1365 1252 832 789 490
5 4 0 0 0 0 0 0 0 336 492 514 321 1289 1738 2194 2516 2722 2714 2596 2612 2469 2429 2414 2382 2332 2427 2488 2441 2109 2376 2337 2057 2032 2135 1421 599 686 1193 184 467 665 440 237
86 93 50 52 10 0 0 0 0 103 695 588 850 1731 2195 2334 2313 2225 1999 1917 1725 1746 1944 2035 2176 2325 2483 2607 2605 2302 2181 2144 2008 2086 1456 1046 553 6 0 0 0 0 27 191
6 0 0 9 58 105 12 15 0 103 617 987 1930 2238 2055 1333 683 227 205 206 89 85 180 399 736 1125 1533 1602 1777 1548 1288 1809 1657 1756 1486 969 270 12 0 0 0 0 0 0
0 0 0 22 31 46 214 508 109 601 1294 1504 931 494 185 25 3 6 11 10 13 22 69 121 70 81 195 361 423 335 455 502 737 730 916 748 758 145 0 0 0 0 0 0
0 0 0 2 38 69 47 662 780 1000 850 390 183 72 4 19 50 48 17 18 18 19 22 28 40 48 24 15 6 12 0 0 23 295 412 422 419 152 9 5 0 0 0 0
1 0 0 0 71 122 133 784 843 580 238 131 89 0 111 48 3 0 0 3 1 2 10 22 48 45 74 28 58 76 23 3 57 146 89 317 223 162 92 7 0 0 0 0
5 0 0 0 13 101 61 749 434 201 192 51 60 12 0 0 0 0 0 11 15 15 9 37 53 68 27 0 0 0 0 0 0 0 0 2 17 36 69 16 0 0 0 0
0 0 0 0 11 62 31 294 200 127 10 0 0 7 0 0 0 0 0 0 16 26 26 18 0 0 0 0 0 0 13 0 0 2 19 52 21 36 70 45 1 0 0 0
0 0 11 60 63 39 423 250 24 10 2 0 0 0 0 0 0 0 0 0 6 61 63 0 0 0 0 0 0 0 0 36 10 12 23 13 40 29 52 62 12 0 0 0
24 52 133 274 66 55 70 8 46 1 1 32 37 28 10 0 0 0 0 0 2 57 13 0 0 0 0 0 0 0 7 3 19 32 42 43 54 70 71 64 4 0 0 0
339 404 219 132 26 21 62 66 36 61 22 47 71 41 37 28 20 18 121 100 49 0 0 0 4 15 11 0 0 0 18 22 35 17 27 39 30 38 28 82 7 0 0 0
78 13 14 0 4 1 0 0 4 5 16 53 72 97 79 48 54 38 116 207 105 0 0 0 0 0 0 0 2 8 23 14 24 36 25 39 85 40 63 19 1 0 0 0
26 0 0 0 0 0 1 4 2 4 8 27 6 23 41 33 25 37 131 123 15 1 7 1 0 0 0 0 9 12 12 0 1 28 14 45 38 35 16 15 2 0 0 0
28 0 1 0 9 52 53 43 112 102 65 55 49 9 18 34 37 72 8 3 1 0 0 0 0 0 0 0 11 22 0 0 4 7 13 32 87 104 24 9 1 4 0 0
0 0 0 0 13 49 37 46 63 57 40 31 8 5 1 6 17 36 15 0 0 0 0 0 0 0 0 1 37 10 8 1 5 8 14 21 25 12 3 19 12 5 0 0
10 19 14 11 19 23 58 59 77 70 66 21 8 2 9 17 16 19 27 10 0 0 0 0 0 0 0 2 25 42 3 1 2 10 22 20 10 28 20 15 0 0 0 0
54 44 58 3 8 6 2 35 115 73 16 4 0 0 12 6 19 29 17 13 8 1 0 0 0 0 0 2 3 12 2 0 0 0 11 6 18 5 12 12 9 11 15 13

GFSNGP_con_mlcape_171.txt.gz
CAPE
0 0 0 0 0 0 0 0 0 0 0 0 0 18 0 0 0 0 0 0 0 2 58 583 730 283 435 791 1122 1327 1554 2384 2712 3254 3726 3874 4190 4402 4444 4383 4173 3836 3510 2881
0 0 0 0 0 0 0 0 0 0 0 0 0 0 0 0 1 0 0 0 0 22 159 213 826 1025 597 584 870 1167 1610 1801 2920 3265 3854 3931 4316 4484 4354 4249 4112 3766 3154 2664
0 0 0 0 0 0 0 0 0 0 0 0 0 0 0 81 57 0 0 0 0 0 0 257 975 1732 1767 1207 996 1245 1500 2140 3074 3558 3932 4313 4461 4380 4138 3964 3782 3347 2954 2505
0 0 0 0 0 0 0 0 0 0 0 0 0 0 0 0 0 1 6 4 6 84 565 844 1362 1777 2434 2879 2202 1976 2272 2971 3589 3966 4093 4106 3966 3921 3700 3508 3358 2974 2597 2246
0 0 0 0 0 0 0 0 0 0 0 0 0 0 0 0 0 3 6 0 21 143 685 1470 1796 2106 2207 2670 3257 3281 3324 3652 3925 4005 3995 3964 3867 3540 3402 3281 3034 2761 2436 1870
0 0 0 0 0 0 0 0 3 0 0 0 0 0 0 0 0 0 0 0 0 148 1583 1987 2302 2327 2429 2812 3195 3510 3754 3937 4008 3954 3843 3833 3707 3444 3124 2855 2554 2258 1796 1326
0 0 0 0 0 0 0 0 334 51 0 0 0 0 0 1 238 174 67 47 187 1056 1314 2375 2762 2753 2819 3110 3324 3858 3927 3941 3844 3656 3593 3406 3155 2939 2718 2371 2186 1753 1458 1062
0 0 0 0 0 0 0 0 527 536 299 132 221 85 0 24 76 456 547 1786 2062 2356 3233 3446 3346 3225 3472 3644 3798 3717 3756 3585 3180 2786 2705 2691 2678 2554 2200 1859 1622 1364 1060 830
0 0 0 0 0 0 0 0 4 378 439 346 437 981 846 904 1130 1301 2208 2716 3087 3276 3539 3723 3730 3706 3814 3762 3701 3602 3191 2969 2493 2217 2218 2042 2156 2042 1740 1543 1273 1011 833 467
0 0 0 0 0 0 0 0 0 0 174 362 629 993 1409 1749 2057 2570 3173 3399 3289 3225 3327 3461 3565 3500 3448 3218 2938 2600 2233 2261 2169 1900 1857 1957 1869 1612 1465 1302 961 837 718 466
0 0 0 0 0 0 0 0 0 0 0 464 1264 1702 2040 2450 2639 2960 3131 2959 2861 2862 2902 2909 2981 3001 2952 2787 2475 2334 2345 2290 2128 2019 1843 957 211 221 818 72 524 894 722 402
0 0 0 0 0 0 26 7 1 8 0 357 1540 1958 2398 2624 2660 2632 2571 2464 2389 2315 2256 2231 2418 2509 2512 2417 2237 2366 2288 2107 2037 1693 1138 441 212 2 0 0 0 44 404 252
0 0 0 0 0 0 0 0 32 19 0 1116 2216 2278 2366 2133 1918 1643 1639 1690 1720 1707 1776 1882 1915 1945 2066 1761 1627 1618 1613 1653 1728 1552 945 276 38 60 72 0 0 0 0 0
0 0 0 0 0 0 0 0 76 143 902 1997 1943 1704 1425 1059 884 1032 877 514 479 608 726 806 891 948 1064 1003 1050 1190 1548 1471 1563 1249 822 274 54 0 0 0 0 0 0 0
0 0 0 0 0 0 0 0 66 779 1056 1221 1125 894 596 356 256 107 19 4 17 46 60 108 70 85 97 65 35 72 203 318 411 548 517 490 46 0 0 0 0 0 0 0
0 0 0 0 0 0 0 0 0 141 400 282 263 134 18 63 35 19 3 1 0 0 0 0 0 0 0 0 0 0 0 0 0 0 0 76 98 18 0 0 0 0 0 0
0 0 0 0 0 0 0 0 0 14 63 47 42 109 19 12 0 0 0 4 0 0 0 0 0 13 0 0 12 0 0 0 4 87 92 118 68 35 2 0 0 0 0 0
0 0 0 0 0 0 1 0 2 148 6 51 124 104 0 0 0 0 46 0 0 0 8 3 2 4 0 0 0 0 0 0 0 0 3 44 40 25 7 0 0 0 0 0
0 0 0 0 0 0 22 18 91 209 26 15 53 40 1 0 0 0 1 0 6 65 0 0 0 0 0 0 0 0 0 0 0 0 12 35 40 44 24 4 0 0 0 0
0 0 0 0 1 117 163 84 79 8 6 0 21 47 8 0 55 0 21 105 102 1 0 0 0 0 0 0 0 0 0 9 7 16 24 32 40 44 45 9 0 0 0 0
88 19 1 222 340 226 124 72 23 6 4 51 88 81 60 33 47 80 57 106 164 8 0 0 2 0 0 0 0 0 0 0 13 16 26 43 51 52 26 0 0 0 0 0
317 338 282 304 119 93 61 43 16 41 80 73 111 72 57 45 50 150 65 11 17 0 0 0 0 0 0 0 0 0 4 10 10 7 21 33 45 44 39 2 0 0 0 0
340 275 150 80 44 27 11 5 0 1 12 22 24 45 78 77 95 109 203 81 7 0 0 0 0 0 0 0 0 0 0 0 4 4 19 25 36 19 15 0 0 0 0 0
27 19 16 6 0 0 0 0 0 0 1 3 1 0 5 25 19 39 103 63 0 0 0 0 0 0 0 0 2 0 0 0 0 0 0 0 0 9 4 3 0 0 0 0
0 0 0 0 0 0 1 43 0 0 1 0 0 20 37 39 14 63 34 1 0 0 0 0 0 0 0 8 0 0 0 0 0 0 0 2 16 16 16 10 1 0 0 0
21 1 0 0 7 0 2 0 12 17 17 22 42 54 57 51 61 64 64 15 5 0 0 0 0 0 0 1 1 1 1 0 0 1 8 23 15 17 1 2 0 0 0 0
9 10 2 0 0 0 7 13 8 17 42 80 21 16 76 104 102 86 99 52 10 0 0 0 0 0 0 6 41 8 2 0 0 12 19 22 32 27 10 1 0 0 0 0